Maplewood, Minnesota, United States
Lat: 44.95N, Lon: 93W
Wx Zone: MNZ062
Local Info
Past Weather Observations for Saturday, May 23, 2015

NOTE: This archive is for the closest National Weather Service station to Maplewood. Information may differ from the station used for current weather conditions.

Click here for Long-term Archive

Time Weather Temperature Dewpoint Humidity Pressure Winds Precip Visibility
23:53
Overcast
63°F / 17°C 46°F / 8°C 56% 30.12 in
(1020 mb)
ESE 5.8 mph
(ESE 9 kph)
0.00 in
(0.00 mm)
10SM
22:53
Overcast
63°F / 17°C 48°F / 9°C 59% 30.15 in
(1021 mb)
Calm - 10SM
21:53
Partly Cloudy
63°F / 17°C 46°F / 8°C 56% 30.15 in
(1021 mb)
E 3.5 mph
(E 6 kph)
- 10SM
20:53
Clear
63°F / 17°C 46°F / 8°C 56% 30.15 in
(1021 mb)
E 4.6 mph
(E 7 kph)
- 10SM
19:53
Clear
63°F / 17°C 46°F / 8°C 56% 30.15 in
(1021 mb)
NE 5.8 mph
(NE 9 kph)
- 10SM
18:53
Clear
64°F / 18°C 46°F / 8°C 52% 30.15 in
(1021 mb)
NE 8.1 mph
(NE 13 kph)
- 10SM
17:53
Overcast
66°F / 19°C 46°F / 8°C 49% 30.15 in
(1021 mb)
NE 8.1 mph
(NE 13 kph)
- 10SM
16:53
Overcast
68°F / 20°C 46°F / 8°C 46% 30.15 in
(1021 mb)
NNE 11.5 mph
(NNE 19 kph)
- 10SM
15:53
Overcast
72°F / 22°C 48°F / 9°C 44% 30.18 in
(1022 mb)
N 11.5 mph
(N 19 kph)
- 10SM
14:53
Overcast
72°F / 22°C 46°F / 8°C 41% 30.21 in
(1023 mb)
Calm - 10SM
13:53
Overcast
73°F / 23°C 45°F / 7°C 36% 30.21 in
(1023 mb)
NE 4.6 mph
(NE 7 kph)
- 10SM
12:53
Mostly Cloudy
72°F / 22°C 43°F / 6°C 36% 30.21 in
(1023 mb)
E 3.5 mph
(E 6 kph)
- 10SM
11:53
Overcast
70°F / 21°C 46°F / 8°C 43% 30.24 in
(1024 mb)
NNE 4.6 mph
(NNE 7 kph)
- 10SM
10:53
Mostly Cloudy
66°F / 19°C 45°F / 7°C 46% 30.24 in
(1024 mb)
NNW 5.8 mph
(NNW 9 kph)
- 10SM
09:53
Overcast
66°F / 19°C 46°F / 8°C 49% 30.27 in
(1025 mb)
N 3.5 mph
(N 6 kph)
- 10SM
08:53
Mostly Cloudy
63°F / 17°C 48°F / 9°C 59% 30.27 in
(1025 mb)
S 6.9 mph
(S 11 kph)
- 10SM
07:53
Clear
59°F / 15°C 48°F / 9°C 68% 30.27 in
(1025 mb)
Calm - 10SM
06:53
Clear
57°F / 14°C 48°F / 9°C 72% 30.24 in
(1024 mb)
Calm - 10SM
05:53
Clear
54°F / 12°C 48°F / 9°C 82% 30.27 in
(1025 mb)
Calm - 10SM
04:53
Clear
50°F / 10°C 46°F / 8°C 88% 30.24 in
(1024 mb)
Calm - 10SM
03:53
Clear
48°F / 9°C 45°F / 7°C 87% 30.24 in
(1024 mb)
ESE 4.6 mph
(ESE 7 kph)
- 10SM
02:53
Clear
48°F / 9°C 45°F / 7°C 87% 30.21 in
(1023 mb)
NW 4.6 mph
(NW 7 kph)
- 10SM
01:53
Clear
54°F / 12°C 45°F / 7°C 72% 30.21 in
(1023 mb)
E 3.5 mph
(E 6 kph)
- 10SM
00:53
Clear
54°F / 12°C 45°F / 7°C 72% 30.21 in
(1023 mb)
E 3.5 mph
(E 6 kph)
- 10SM
Time Weather Temperature Dewpoint Humidity Pressure Winds Precip Visibility


Weather for websites

WeatherForYou.com, LLC is not responsible for any damages or problems caused by this service. Current weather conditions are obtained from the closest station including government and personal stations which may have varying degrees of accuracy. Weather forecasts are derived from the NOAA NDFD. Like all things, this site belongs to Jesus Christ... He just trusts us to maintain it. If you have any questions or comments email webmaster@weatherforyou.com

Copyright © 2015, WeatherForYou.com LLC. All rights reserved.